| time (UTC) | temp F | wind direction | speed MPH | gust MPH | rain 1hr in | rain 24hr in | rain mn in | humidity % | barometer mb |
| 20260831134126 | 66 | 264 | 0.0 | 5.0 | 0.04 | 1.10 | 0.02 | 78 | 1016.0 |
| 20260831133119 | 65 | 254 | 1.0 | 5.0 | 0.04 | 1.10 | 0.02 | 79 | 1016.0 |
| 20260831132125 | 66 | 207 | 1.0 | 5.0 | 0.04 | 1.10 | 0.02 | 80 | 1015.9 |
| 20260831131137 | 66 | 357 | 0.0 | 3.0 | 0.08 | 1.10 | 0.02 | 82 | 1015.6 |
| 20260831130147 | 65 | 176 | 1.0 | 6.0 | 0.08 | 1.10 | 0.02 | 83 | 1015.6 |
| 20260831125119 | 66 | 234 | 0.0 | 3.0 | 0.08 | 1.10 | 0.02 | 81 | 1015.6 |
| 20260831124125 | 66 | 248 | 1.0 | 3.0 | 0.04 | 1.06 | 0.02 | 80 | 1015.4 |
| 20260831123118 | 65 | 226 | 0.0 | 1.0 | 0.04 | 1.06 | 0.02 | 83 | 1015.2 |
| 20260831122132 | 66 | 342 | 0.0 | 5.0 | 0.04 | 1.06 | 0.02 | 80 | 1015.2 |
| 20260831121115 | 68 | 259 | 2.0 | 6.0 | 0.00 | 1.02 | 0.01 | 73 | 1015.1 |
| 20260831120148 | 69 | 238 | 1.0 | 5.0 | 0.00 | 1.02 | 0.01 | 69 | 1014.6 |
| 20260831115141 | 69 | 249 | 2.0 | 5.0 | 0.00 | 1.02 | 0.01 | 67 | 1014.5 |
| 20260831114131 | 70 | 180 | 0.0 | 5.0 | 0.00 | 1.02 | 0.01 | 68 | 1014.4 |
| 20260831113123 | 69 | 284 | 1.0 | 5.0 | 0.00 | 1.02 | 0.01 | 69 | 1014.3 |
| 20260831112156 | 69 | 225 | 1.0 | 5.0 | 0.00 | 1.02 | 0.01 | 68 | 1014.2 |
| 20260831111121 | 69 | 175 | 0.0 | 4.0 | 0.00 | 1.02 | 0.01 | 69 | 1014.2 |
| 20260831110131 | 69 | 80 | 1.0 | 5.0 | 0.00 | 1.02 | 0.01 | 70 | 1014.0 |
| 20260831105116 | 69 | 235 | 0.0 | 3.0 | 0.00 | 1.02 | 0.01 | 71 | 1013.8 |
| 20260831104149 | 69 | 13 | 1.0 | 4.0 | 0.00 | 1.02 | 0.01 | 72 | 1013.7 |
| 20260831103120 | 68 | 206 | 0.0 | 7.0 | 0.00 | 1.02 | 0.01 | 74 | 1013.6 |
| 20260831102134 | 69 | 103 | 1.0 | 4.0 | 0.00 | 1.02 | 0.01 | 72 | 1013.3 |
| 20260831101121 | 68 | 223 | 1.0 | 7.0 | 0.00 | 1.06 | 0.01 | 74 | 1013.2 |
| 20260831100135 | 68 | 96 | 1.0 | 4.0 | 0.00 | 1.06 | 0.01 | 75 | 1013.1 |
| 20260831095117 | 67 | 250 | 1.0 | 5.0 | 0.00 | 1.06 | 0.01 | 76 | 1013.0 |
| 20260831094130 | 68 | 207 | 0.0 | 5.0 | 0.00 | 1.06 | 0.01 | 75 | 1012.9 |
| 20260831093120 | 67 | 72 | 2.0 | 7.0 | 0.00 | 1.06 | 0.01 | 77 | 1012.8 |
| 20260831092122 | 67 | 266 | 2.0 | 8.0 | 0.00 | 1.06 | 0.01 | 79 | 1012.5 |
| 20260831091116 | 66 | 226 | 1.0 | 6.0 | 0.00 | 1.06 | 0.01 | 82 | 1012.5 |
| 20260831090121 | 66 | 52 | 0.0 | 5.0 | 0.00 | 1.06 | 0.01 | 83 | 1012.3 |
| 20260831085133 | 65 | 244 | 1.0 | 5.0 | 0.00 | 1.06 | 0.01 | 86 | 1012.2 |
| 20260831084124 | 64 | 26 | 1.0 | 7.0 | 0.00 | 1.06 | 0.01 | 87 | 1012.1 |
| 20260831083136 | 64 | 189 | 1.0 | 4.0 | 0.00 | 1.06 | 0.01 | 87 | 1011.9 |
| 20260831082122 | 64 | 354 | 1.0 | 6.0 | 0.00 | 1.06 | 0.01 | 85 | 1011.8 |
| 20260831081136 | 65 | 240 | 1.0 | 3.0 | 0.00 | 1.06 | 0.01 | 85 | 1011.7 |
| 20260831080119 | 64 | 226 | 1.0 | 4.0 | 0.00 | 1.06 | 0.01 | 85 | 1011.4 |
| 20260831075133 | 63 | 25 | 1.0 | 5.0 | 0.00 | 1.06 | 0.01 | 87 | 1011.2 |
| 20260831074120 | 63 | 236 | 1.0 | 7.0 | 0.00 | 1.06 | 0.01 | 87 | 1011.1 |
| 20260831073152 | 62 | 47 | 1.0 | 4.0 | 0.00 | 1.06 | 0.01 | 88 | 1010.9 |
| 20260831072117 | 62 | 23 | 1.0 | 5.0 | 0.00 | 1.06 | 0.01 | 89 | 1010.6 |
| 20260831071110 | 61 | 229 | 0.0 | 2.0 | 0.00 | 1.06 | 0.01 | 91 | 1010.5 |
| 20260831070116 | 61 | 217 | 0.0 | 3.0 | 0.00 | 1.06 | 0.01 | 91 | 1010.4 |
| 20260831065126 | 60 | 98 | 0.0 | 3.0 | 0.00 | 1.06 | 0.01 | 92 | 1010.2 |
| 20260831064112 | 60 | 256 | 0.0 | 4.0 | 0.00 | 1.06 | 0.01 | 92 | 1009.9 |
| 20260831063126 | 59 | 212 | 0.0 | 8.0 | 0.00 | 1.06 | 0.01 | 93 | 1009.8 |
| 20260831062119 | 59 | 221 | 1.0 | 7.0 | 0.00 | 1.06 | 0.01 | 93 | 1009.7 |
| 20260831061130 | 59 | 1 | 0.0 | 4.0 | 0.00 | 1.06 | 0.01 | 93 | 1009.5 |
| 20260831060116 | 58 | 219 | 0.0 | 2.0 | 0.00 | 1.06 | 0.01 | 93 | 1009.4 |
| 20260831055127 | 58 | 319 | 0.0 | 4.0 | 0.00 | 1.06 | 0.01 | 93 | 1009.2 |
| 20260831054118 | 58 | 269 | 0.0 | 3.0 | 0.00 | 1.06 | 0.01 | 94 | 1008.9 |
| 20260831053123 | 57 | 206 | 0.0 | 3.0 | 0.00 | 1.06 | 0.01 | 94 | 1008.9 |
| 20260831052121 | 57 | 217 | 0.0 | 1.0 | 0.00 | 1.06 | 0.01 | 94 | 1008.7 |
| 20260831051136 | 57 | 206 | 0.0 | 2.0 | 0.00 | 1.06 | 0.01 | 95 | 1008.5 |
| 20260831050119 | 57 | 91 | 0.0 | 3.0 | 0.00 | 1.06 | 0.01 | 95 | 1008.5 |
| 20260831045112 | 56 | 94 | 0.0 | 2.0 | 0.00 | 1.06 | 0.01 | 95 | 1008.2 |
| 20260831044123 | 56 | 241 | 0.0 | 2.0 | 0.00 | 1.06 | 0.01 | 95 | 1008.1 |
| 20260831043129 | 56 | 146 | 0.0 | 0.0 | 0.00 | 1.06 | 0.01 | 95 | 1008.1 |
| 20260831042121 | 56 | 229 | 0.0 | 0.0 | 0.00 | 1.06 | 0.01 | 94 | 1007.9 |
| 20260831041135 | 56 | 229 | 0.0 | 1.0 | 0.00 | 1.06 | 0.01 | 95 | 1007.8 |
| 20260831040142 | 56 | 221 | 0.0 | 0.0 | 0.00 | 1.06 | 0.01 | 95 | 1007.7 |
| 20260831035114 | 55 | 227 | 0.0 | 1.0 | 0.00 | 1.06 | 0.01 | 94 | 1007.6 |
| 20260831034117 | 55 | 200 | 0.0 | 0.0 | 0.00 | 1.06 | 0.01 | 93 | 1007.4 |
| 20260831033111 | 55 | 200 | 0.0 | 0.0 | 0.00 | 1.06 | 0.01 | 93 | 1007.4 |
| 20260831032124 | 55 | 200 | 0.0 | 0.0 | 0.00 | 1.06 | 0.01 | 93 | 1007.3 |
| 20260831031110 | 56 | 200 | 0.0 | 0.0 | 0.00 | 1.06 | 0.01 | 93 | 1007.2 |
| 20260831030123 | 56 | 200 | 0.0 | 0.0 | 0.00 | 1.06 | 0.01 | 93 | 1007.1 |
| 20260831025137 | 56 | 201 | 0.0 | 0.0 | 0.00 | 1.06 | 0.01 | 93 | 1007.1 |
| 20260831024120 | 56 | 201 | 0.0 | 1.0 | 0.00 | 1.06 | 0.01 | 93 | 1007.0 |
| 20260831023134 | 57 | 229 | 0.0 | 0.0 | 0.00 | 1.06 | 0.01 | 92 | 1006.8 |
| 20260831022125 | 57 | 229 | 0.0 | 3.0 | 0.00 | 1.06 | 0.01 | 93 | 1006.6 |
| 20260831021111 | 57 | 222 | 0.0 | 1.0 | 0.00 | 1.06 | 0.01 | 93 | 1006.5 |
| 20260831020121 | 57 | 127 | 0.0 | 1.0 | 0.00 | 1.06 | 0.01 | 93 | 1006.5 |
| 20260831015113 | 57 | 171 | 0.0 | 1.0 | 0.00 | 1.06 | 0.01 | 93 | 1006.5 |
| 20260831014117 | 57 | 207 | 0.0 | 1.0 | 0.04 | 1.06 | 0.01 | 93 | 1006.4 |
| 20260831013129 | 57 | 224 | 0.0 | 0.0 | 0.04 | 1.06 | 0.01 | 93 | 1006.3 |
| 20260831012115 | 57 | 233 | 0.0 | 0.0 | 0.04 | 1.06 | 0.01 | 93 | 1006.2 |
| 20260831011129 | 57 | 217 | 0.0 | 0.0 | 0.04 | 1.06 | 0.01 | 93 | 1006.2 |
| 20260831010141 | 57 | 235 | 0.0 | 0.0 | 0.04 | 1.06 | 0.01 | 93 | 1006.1 |
| 20260831005132 | 57 | 236 | 0.0 | 2.0 | 0.04 | 1.06 | 0.01 | 93 | 1006.1 |
| 20260831004119 | 57 | 220 | 0.0 | 1.0 | 0.00 | 1.02 | 0.00 | 93 | 1005.9 |
| 20260831003151 | 57 | 236 | 0.0 | 1.0 | 0.00 | 1.02 | 0.00 | 93 | 1005.8 |
| 20260831002124 | 57 | 204 | 0.0 | 0.0 | 0.00 | 1.02 | 0.00 | 93 | 1005.7 |
| 20260831001130 | 57 | 187 | 0.0 | 0.0 | 0.00 | 1.02 | 0.00 | 93 | 1005.6 |
| 20260831000122 | 57 | 176 | 0.0 | 2.0 | 0.00 | 1.02 | 0.00 | 93 | 1005.4 |
| 20260830235156 | 57 | 197 | 0.0 | 2.0 | 0.00 | 1.02 | 0.00 | 93 | 1005.3 |
| 20260830234121 | 57 | 219 | 0.0 | 1.0 | 0.00 | 1.02 | 0.00 | 93 | 1005.2 |
| 20260830233113 | 57 | 224 | 0.0 | 1.0 | 0.04 | 1.02 | 0.00 | 93 | 1005.2 |
| 20260830232119 | 58 | 222 | 0.0 | 1.0 | 0.04 | 1.02 | 0.00 | 93 | 1005.1 |
| 20260830231129 | 58 | 238 | 0.0 | 2.0 | 0.04 | 1.02 | 0.20 | 92 | 1005.1 |
| 20260830230114 | 58 | 317 | 0.0 | 1.0 | 0.04 | 1.02 | 0.20 | 92 | 1005.0 |
| 20260830225126 | 58 | 214 | 0.0 | 2.0 | 0.04 | 1.02 | 0.20 | 92 | 1004.9 |
| 20260830224119 | 58 | 206 | 1.0 | 3.0 | 0.04 | 1.02 | 0.20 | 93 | 1004.9 |
| 20260830223126 | 58 | 44 | 0.0 | 4.0 | 0.00 | 0.98 | 0.20 | 93 | 1005.0 |
| 20260830222120 | 58 | 355 | 0.0 | 1.0 | 0.00 | 0.98 | 0.20 | 93 | 1004.7 |
| 20260830221134 | 59 | 167 | 0.0 | 2.0 | 0.00 | 0.98 | 0.20 | 93 | 1004.7 |
| 20260830220138 | 59 | 217 | 0.0 | 1.0 | 0.00 | 0.98 | 0.20 | 93 | 1004.6 |
| 20260830215113 | 59 | 236 | 0.0 | 1.0 | 0.12 | 0.98 | 0.20 | 93 | 1004.5 |
| 20260830214119 | 59 | 197 | 0.0 | 0.0 | 0.24 | 0.98 | 0.20 | 93 | 1004.5 |
| 20260830213131 | 59 | 178 | 0.0 | 2.0 | 0.24 | 0.98 | 0.20 | 93 | 1004.3 |
| 20260830212122 | 60 | 155 | 0.0 | 1.0 | 0.24 | 0.98 | 0.20 | 93 | 1004.3 |
| 20260830211135 | 60 | 233 | 0.0 | 3.0 | 0.24 | 0.98 | 0.20 | 92 | 1004.2 |
| 20260830210121 | 60 | 208 | 1.0 | 4.0 | 0.24 | 0.98 | 0.20 | 92 | 1004.2 |
| 20260830205115 | 61 | 161 | 0.0 | 2.0 | 0.43 | 0.87 | 0.17 | 92 | 1004.3 |
| 20260830204148 | 61 | 22 | 0.0 | 3.0 | 0.51 | 0.75 | 0.15 | 92 | 1004.4 |
| 20260830203113 | 61 | 143 | 0.0 | 4.0 | 0.51 | 0.75 | 0.15 | 92 | 1004.0 |
| 20260830202125 | 61 | 224 | 0.0 | 0.0 | 0.51 | 0.75 | 0.15 | 91 | 1004.2 |
| 20260830201118 | 61 | 226 | 0.0 | 1.0 | 0.51 | 0.75 | 0.15 | 90 | 1004.3 |
| 20260830200132 | 62 | 191 | 0.0 | 2.0 | 0.51 | 0.75 | 0.15 | 89 | 1004.3 |
| 20260830195116 | 62 | 229 | 0.0 | 2.0 | 0.20 | 0.43 | 0.09 | 87 | 1004.5 |
| 20260830194130 | 63 | 231 | 1.0 | 5.0 | 0.00 | 0.24 | 0.05 | 86 | 1004.4 |
| 20260830193120 | 62 | 221 | 0.0 | 3.0 | 0.00 | 0.24 | 0.05 | 86 | 1004.3 |
| 20260830192133 | 62 | 265 | 0.0 | 5.0 | 0.00 | 0.24 | 0.05 | 86 | 1004.5 |
| 20260830191117 | 63 | 215 | 0.0 | 3.0 | 0.00 | 0.24 | 0.05 | 86 | 1004.4 |
| 20260830190130 | 63 | 221 | 0.0 | 2.0 | 0.00 | 0.24 | 0.05 | 86 | 1004.4 |
| 20260830185142 | 63 | 193 | 0.0 | 2.0 | 0.00 | 0.24 | 0.05 | 86 | 1004.6 |
| 20260830184156 | 63 | 138 | 0.0 | 3.0 | 0.00 | 0.24 | 0.05 | 86 | 1004.6 |
| 20260830183120 | 63 | 19 | 0.0 | 3.0 | 0.00 | 0.24 | 0.05 | 86 | 1004.7 |
| 20260830182112 | 63 | 219 | 0.0 | 3.0 | 0.00 | 0.24 | 0.05 | 86 | 1004.7 |
| 20260830181125 | 63 | 239 | 0.0 | 2.0 | 0.00 | 0.24 | 0.05 | 85 | 1004.6 |
| 20260830180131 | 63 | 252 | 1.0 | 4.0 | 0.00 | 0.24 | 0.05 | 84 | 1004.5 |
| 20260830175124 | 64 | 229 | 1.0 | 6.0 | 0.04 | 0.24 | 0.05 | 83 | 1004.6 |
| 20260830174136 | 64 | 148 | 1.0 | 4.0 | 0.20 | 0.24 | 0.05 | 83 | 1004.8 |
| 20260830173121 | 65 | 264 | 1.0 | 5.0 | 0.20 | 0.24 | 0.05 | 83 | 1004.8 |
| 20260830172133 | 65 | 210 | 0.0 | 8.0 | 0.20 | 0.24 | 0.05 | 84 | 1004.9 |
| 20260830171119 | 65 | 218 | 2.0 | 7.0 | 0.20 | 0.24 | 0.05 | 87 | 1004.8 |
| 20260830170133 | 65 | 207 | 0.0 | 5.0 | 0.20 | 0.24 | 0.05 | 86 | 1004.8 |
| 20260830165146 | 66 | 117 | 1.0 | 5.0 | 0.12 | 0.16 | 0.03 | 82 | 1004.8 |
| 20260830164132 | 67 | 224 | 1.0 | 6.0 | 0.00 | 0.04 | 0.01 | 79 | 1004.7 |
| 20260830163125 | 66 | 272 | 0.0 | 5.0 | 0.00 | 0.04 | 0.01 | 84 | 1004.8 |
| 20260830162157 | 66 | 236 | 1.0 | 7.0 | 0.00 | 0.04 | 0.01 | 84 | 1004.9 |
| 20260830161122 | 66 | 204 | 0.0 | 4.0 | 0.00 | 0.04 | 0.01 | 85 | 1005.1 |
| 20260830160114 | 66 | 216 | 0.0 | 6.0 | 0.00 | 0.04 | 0.01 | 83 | 1005.1 |
| 20260830155121 | 66 | 224 | 1.0 | 6.0 | 0.00 | 0.04 | 0.01 | 82 | 1005.2 |
| 20260830154114 | 67 | 220 | 1.0 | 6.0 | 0.00 | 0.04 | 0.01 | 79 | 1005.4 |
| 20260830153121 | 68 | 210 | 0.0 | 2.0 | 0.00 | 0.04 | 0.01 | 78 | 1005.4 |
| 20260830152136 | 68 | 154 | 0.0 | 2.0 | 0.00 | 0.04 | 0.01 | 79 | 1005.5 |
| 20260830151147 | 67 | 95 | 1.0 | 8.0 | 0.00 | 0.08 | 0.01 | 80 | 1005.6 |
| 20260830150119 | 67 | 248 | 0.0 | 6.0 | 0.00 | 0.08 | 0.01 | 82 | 1006.0 |
| 20260830145152 | 66 | 46 | 0.0 | 4.0 | 0.00 | 0.08 | 0.01 | 83 | 1006.0 |
| 20260830144117 | 66 | 229 | 1.0 | 4.0 | 0.00 | 0.08 | 0.01 | 82 | 1005.9 |
| 20260830143130 | 67 | 110 | 0.0 | 5.0 | 0.00 | 0.08 | 0.01 | 81 | 1006.2 |
| 20260830142117 | 67 | 199 | 0.0 | 2.0 | 0.00 | 0.08 | 0.01 | 79 | 1006.4 |
| 20260830141148 | 67 | 214 | 0.0 | 4.0 | 0.00 | 0.08 | 0.01 | 78 | 1006.6 |
| 20260830140121 | 67 | 226 | 1.0 | 4.0 | 0.00 | 0.08 | 0.01 | 77 | 1006.7 |
| 20260830135130 | 68 | 197 | 1.0 | 5.0 | 0.00 | 0.08 | 0.01 | 75 | 1006.8 |